LHX5H EGLL-EDDF

Flight info

Callsign LHX5H
Flight time 1h 29m
Altitude 35000
Route DET L6 DVR UL9 KONAN UL607 SPI T180 NIVNU T847 IMCOM IMCOM1A
Aircraft A320/M-SDE3FGHIRWY/LB1

Departure

Time 2026-05-04 14:48
Airport London Heathrow Airport (EGLL)

Arrival

Time 2026-05-04 16:18
Airport Frankfurt Main Airport (EDDF)
Time Latitude Longitude Altitude Speed Heading
2026-05-04 14:23 51.46829 -0.45112 86 ft 0 kts 360°
2026-05-04 14:34 51.46825 -0.45112 86 ft 2 kts 360°
2026-05-04 14:34 51.46807 -0.45112 87 ft 3 kts 360°
2026-05-04 14:34 51.46788 -0.45111 86 ft 3 kts
2026-05-04 14:35 51.46769 -0.45114 86 ft 3 kts 22°
2026-05-04 14:35 51.46754 -0.45130 88 ft 3 kts 62°
2026-05-04 14:35 51.46749 -0.45158 90 ft 3 kts 92°
2026-05-04 14:35 51.46751 -0.45190 88 ft 2 kts 94°
2026-05-04 14:36 51.46752 -0.45208 87 ft 2 kts 91°
2026-05-04 14:36 51.46751 -0.45232 86 ft 1 kts 89°
2026-05-04 14:36 51.46751 -0.45234 86 ft 0 kts 89°
2026-05-04 14:38 51.46751 -0.45189 86 ft 9 kts 91°
2026-05-04 14:39 51.46751 -0.45043 86 ft 18 kts 89°
2026-05-04 14:39 51.46752 -0.44870 86 ft 17 kts 90°
2026-05-04 14:39 51.46753 -0.44661 86 ft 18 kts 89°
2026-05-04 14:40 51.46754 -0.44216 86 ft 25 kts 90°
2026-05-04 14:40 51.46754 -0.44141 86 ft 6 kts 90°
2026-05-04 14:40 51.46766 -0.44034 87 ft 13 kts 77°
2026-05-04 14:40 51.46770 -0.43865 86 ft 13 kts 99°
2026-05-04 14:41 51.46707 -0.43829 86 ft 13 kts 179°
2026-05-04 14:41 51.46640 -0.43829 86 ft 0 kts 180°
2026-05-04 14:45 51.46627 -0.43829 86 ft 6 kts 180°
2026-05-04 14:46 51.46560 -0.43828 85 ft 14 kts 179°
2026-05-04 14:46 51.46495 -0.43889 87 ft 4 kts 267°
2026-05-04 14:46 51.46495 -0.43890 86 ft 0 kts 267°
2026-05-04 14:47 51.46495 -0.43891 86 ft 1 kts 267°
2026-05-04 14:47 51.46493 -0.44104 86 ft 57 kts 269°
2026-05-04 14:47 51.46490 -0.45181 88 ft 139 kts 270°
2026-05-04 14:48 51.46488 -0.47048 354 ft 184 kts 272°
2026-05-04 14:48 51.46485 -0.49159 1343 ft 191 kts 270°
2026-05-04 14:48 51.46459 -0.51188 2075 ft 203 kts 267°
2026-05-04 14:48 51.46098 -0.53483 2471 ft 223 kts 245°
2026-05-04 14:49 51.45126 -0.55568 2959 ft 243 kts 221°
2026-05-04 14:49 51.43641 -0.56945 3636 ft 258 kts 197°
2026-05-04 14:49 51.41823 -0.57186 4452 ft 267 kts 170°
2026-05-04 14:49 51.40099 -0.56109 5412 ft 271 kts 146°
2026-05-04 14:50 51.38845 -0.54017 5838 ft 275 kts 123°
2026-05-04 14:50 51.37855 -0.51405 5996 ft 274 kts 121°
2026-05-04 14:50 51.36879 -0.48785 6003 ft 274 kts 121°
2026-05-04 14:50 51.35904 -0.46177 6003 ft 273 kts 121°
2026-05-04 14:51 51.34926 -0.43571 6004 ft 273 kts 122°
2026-05-04 14:51 51.33945 -0.40974 6004 ft 273 kts 122°
2026-05-04 14:51 51.32822 -0.38532 5998 ft 273 kts 135°
2026-05-04 14:51 51.31551 -0.36277 5998 ft 274 kts 120°
2026-05-04 14:52 51.31038 -0.33371 6004 ft 274 kts 93°
2026-05-04 14:52 51.31082 -0.30325 6003 ft 274 kts 84°
2026-05-04 14:52 51.31281 -0.27291 6003 ft 275 kts 83°
2026-05-04 14:52 51.31469 -0.24251 5999 ft 275 kts 85°
2026-05-04 14:53 51.31590 -0.21213 6000 ft 275 kts 87°
2026-05-04 14:53 51.31646 -0.18157 6003 ft 274 kts 89°
2026-05-04 14:53 51.31654 -0.15112 6002 ft 275 kts 90°
2026-05-04 14:53 51.31632 -0.12096 5999 ft 274 kts 91°
2026-05-04 14:54 51.31591 -0.09045 5996 ft 274 kts 91°
2026-05-04 14:54 51.31546 -0.06000 5997 ft 274 kts 91°
2026-05-04 14:54 51.31503 -0.02954 5997 ft 275 kts 91°
2026-05-04 14:54 51.31457 0.00093 5986 ft 275 kts 90°
2026-05-04 14:55 51.31408 0.03152 5979 ft 275 kts 91°
2026-05-04 14:55 51.31358 0.06204 5985 ft 275 kts 90°
2026-05-04 14:55 51.31309 0.09256 5981 ft 275 kts 91°
2026-05-04 14:55 51.31261 0.12315 5979 ft 275 kts 91°
2026-05-04 14:56 51.31212 0.15366 5991 ft 275 kts 90°
2026-05-04 14:56 51.31161 0.18416 5974 ft 275 kts 90°
2026-05-04 14:56 51.31110 0.21470 5979 ft 275 kts 91°
2026-05-04 14:56 51.31056 0.24524 5980 ft 275 kts 91°
2026-05-04 14:57 51.31003 0.27578 5981 ft 275 kts 90°
2026-05-04 14:57 51.30951 0.30630 5981 ft 275 kts 90°
2026-05-04 14:57 51.30898 0.33688 5980 ft 275 kts 91°
2026-05-04 14:57 51.30841 0.36742 5984 ft 275 kts 91°
2026-05-04 14:58 51.30784 0.39789 5980 ft 275 kts 91°
2026-05-04 14:58 51.30727 0.42852 5980 ft 275 kts 91°
2026-05-04 14:58 51.30671 0.45903 5980 ft 275 kts 91°
2026-05-04 14:58 51.30634 0.47929 5980 ft 275 kts 90°
2026-05-04 14:59 51.30557 0.52010 5979 ft 275 kts 90°
2026-05-04 14:59 51.30496 0.55072 5980 ft 275 kts 91°
2026-05-04 14:59 51.30301 0.60143 5987 ft 275 kts 100°
2026-05-04 15:00 51.29600 0.64116 6808 ft 282 kts 106°
2026-05-04 15:00 51.29226 0.66150 7476 ft 283 kts 106°
2026-05-04 15:00 51.28493 0.70164 8709 ft 287 kts 106°
2026-05-04 15:01 51.27360 0.76363 10333 ft 301 kts 107°
2026-05-04 15:01 51.26747 0.79697 10629 ft 325 kts 107°
2026-05-04 15:01 51.26305 0.82094 10799 ft 341 kts 107°
2026-05-04 15:01 51.25618 0.85814 11259 ft 355 kts 107°
2026-05-04 15:02 51.24919 0.89620 11963 ft 360 kts 107°
2026-05-04 15:02 51.24207 0.93485 12710 ft 365 kts 107°
2026-05-04 15:02 51.23487 0.97383 13486 ft 368 kts 107°
2026-05-04 15:02 51.22759 1.01314 14218 ft 371 kts 107°
2026-05-04 15:03 51.22023 1.05283 14886 ft 374 kts 107°
2026-05-04 15:03 51.21277 1.09278 15546 ft 378 kts 108°
2026-05-04 15:03 51.20531 1.13249 16192 ft 381 kts 108°
2026-05-04 15:03 51.19768 1.17305 16840 ft 384 kts 108°
2026-05-04 15:04 51.18999 1.21395 17461 ft 387 kts 108°
2026-05-04 15:04 51.18219 1.25527 18093 ft 390 kts 108°
2026-05-04 15:04 51.17432 1.29681 18644 ft 394 kts 108°
2026-05-04 15:04 51.16646 1.33878 19171 ft 397 kts 107°
2026-05-04 15:05 51.16151 1.38226 19690 ft 402 kts 97°
2026-05-04 15:05 51.15950 1.42692 20206 ft 405 kts 96°
2026-05-04 15:05 51.15744 1.47186 20688 ft 409 kts 96°
2026-05-04 15:05 51.15528 1.51729 21177 ft 413 kts 96°
2026-05-04 15:06 51.15304 1.56298 21657 ft 416 kts 96°
2026-05-04 15:06 51.15072 1.60907 22149 ft 419 kts 97°
2026-05-04 15:06 51.14836 1.65548 22626 ft 422 kts 97°
2026-05-04 15:07 51.14357 1.74937 23560 ft 429 kts 97°
2026-05-04 15:07 51.14117 1.79682 23945 ft 431 kts 97°
2026-05-04 15:07 51.13876 1.84464 24332 ft 434 kts 97°
2026-05-04 15:07 51.13632 1.89262 24723 ft 436 kts 97°
2026-05-04 15:08 51.13384 1.94086 25082 ft 439 kts 97°
2026-05-04 15:08 51.13131 1.98939 25449 ft 441 kts 97°
2026-05-04 15:08 51.12874 2.03808 25836 ft 443 kts 97°
2026-05-04 15:08 51.12609 2.08709 26222 ft 445 kts 97°
2026-05-04 15:09 51.12344 2.13628 26594 ft 447 kts 97°
2026-05-04 15:09 51.12082 2.18565 26962 ft 449 kts 97°
2026-05-04 15:09 51.11819 2.23521 27322 ft 451 kts 98°
2026-05-04 15:10 51.11279 2.33504 28004 ft 454 kts 98°
2026-05-04 15:10 51.11002 2.38522 28323 ft 457 kts 98°
2026-05-04 15:10 51.10433 2.48639 28936 ft 461 kts 98°
2026-05-04 15:11 51.10138 2.53723 29245 ft 463 kts 98°
2026-05-04 15:11 51.09845 2.58751 29582 ft 464 kts 98°
2026-05-04 15:11 51.09514 2.63841 30021 ft 461 kts 102°
2026-05-04 15:11 51.08822 2.68790 30406 ft 456 kts 110°
2026-05-04 15:12 51.07943 2.73615 30765 ft 455 kts 110°
2026-05-04 15:12 51.07067 2.78450 31119 ft 454 kts 110°
2026-05-04 15:12 51.06196 2.83273 31478 ft 454 kts 110°
2026-05-04 15:12 51.05323 2.88091 31832 ft 453 kts 110°
2026-05-04 15:13 51.04448 2.92899 32210 ft 452 kts 111°
2026-05-04 15:13 51.03572 2.97681 32559 ft 452 kts 111°
2026-05-04 15:13 51.02692 3.02464 32897 ft 451 kts 111°
2026-05-04 15:13 51.01812 3.07249 33236 ft 451 kts 111°
2026-05-04 15:14 51.00931 3.12033 33587 ft 451 kts 111°
2026-05-04 15:14 51.00051 3.16810 33940 ft 451 kts 111°
2026-05-04 15:14 50.99169 3.21583 34238 ft 451 kts 111°
2026-05-04 15:14 50.98294 3.26295 34508 ft 451 kts 111°
2026-05-04 15:15 50.97394 3.31130 34766 ft 451 kts 111°
2026-05-04 15:15 50.96503 3.35902 34932 ft 452 kts 111°
2026-05-04 15:15 50.95609 3.40684 34972 ft 453 kts 111°
2026-05-04 15:16 50.92908 3.55049 34969 ft 453 kts 111°
2026-05-04 15:17 50.90194 3.69331 34971 ft 453 kts 111°
2026-05-04 15:17 50.87421 3.83645 34961 ft 454 kts 112°
2026-05-04 15:18 50.85563 3.93192 34967 ft 454 kts 112°
2026-05-04 15:19 50.82770 4.07512 34972 ft 454 kts 112°
2026-05-04 15:19 50.79958 4.21804 34966 ft 454 kts 112°
2026-05-04 15:20 50.78088 4.31264 34972 ft 453 kts 112°
2026-05-04 15:20 50.76197 4.40764 34973 ft 453 kts 112°
2026-05-04 15:21 50.74297 4.50235 34974 ft 453 kts 112°
2026-05-04 15:22 50.71434 4.64445 34978 ft 453 kts 112°
2026-05-04 15:22 50.68689 4.78708 34970 ft 453 kts 111°
2026-05-04 15:23 50.66852 4.88201 34975 ft 453 kts 112°
2026-05-04 15:23 50.64980 4.97665 34975 ft 452 kts 112°
2026-05-04 15:24 50.61075 5.16480 34953 ft 452 kts 113°
2026-05-04 15:25 50.59107 5.25902 34961 ft 453 kts 113°
2026-05-04 15:26 50.56168 5.40060 34969 ft 454 kts 113°
2026-05-04 15:26 50.53198 5.54202 34974 ft 454 kts 113°
2026-05-04 15:27 50.50271 5.68319 34971 ft 457 kts 111°
2026-05-04 15:28 50.47641 5.82749 34978 ft 458 kts 110°
2026-05-04 15:29 50.44984 5.97127 34979 ft 457 kts 111°
2026-05-04 15:30 50.38575 6.30562 34966 ft 458 kts 111°
2026-05-04 15:31 50.36755 6.40123 34732 ft 460 kts 109°
2026-05-04 15:31 50.36168 6.45115 33685 ft 473 kts 100°
2026-05-04 15:32 50.35241 6.60735 30479 ft 486 kts 99°
2026-05-04 15:32 50.34561 6.71213 28190 ft 491 kts 99°
2026-05-04 15:33 50.33852 6.81829 26147 ft 487 kts 101°
2026-05-04 15:34 50.30591 6.96389 23624 ft 466 kts 118°
2026-05-04 15:34 50.29226 7.00961 22697 ft 461 kts 118°
2026-05-04 15:34 50.26535 7.09936 21107 ft 451 kts 118°
2026-05-04 15:35 50.23907 7.18707 19654 ft 441 kts 118°
2026-05-04 15:35 50.22611 7.23033 18951 ft 437 kts 118°
2026-05-04 15:35 50.21335 7.27288 18371 ft 430 kts 118°
2026-05-04 15:36 50.18891 7.35637 17208 ft 415 kts 115°
2026-05-04 15:36 50.17838 7.39799 16675 ft 409 kts 114°
2026-05-04 15:36 50.16874 7.43942 16150 ft 404 kts 112°
2026-05-04 15:37 50.15950 7.48050 15622 ft 400 kts 112°
2026-05-04 15:37 50.15030 7.52114 15105 ft 395 kts 112°
2026-05-04 15:37 50.14102 7.56121 14587 ft 392 kts 113°
2026-05-04 15:37 50.13161 7.60093 14085 ft 388 kts 113°
2026-05-04 15:38 50.12224 7.63997 13550 ft 384 kts 114°
2026-05-04 15:38 50.11220 7.67831 13032 ft 378 kts 120°
2026-05-04 15:38 50.09859 7.71290 12739 ft 372 kts 128°
2026-05-04 15:38 50.08372 7.74582 12495 ft 372 kts 128°
2026-05-04 15:39 50.06898 7.77891 12264 ft 371 kts 128°
2026-05-04 15:39 50.05434 7.81192 11999 ft 370 kts 128°
2026-05-04 15:39 50.02523 7.87756 11499 ft 367 kts 127°
2026-05-04 15:40 50.01340 7.91276 11243 ft 370 kts 114°
2026-05-04 15:40 50.00714 7.95180 10989 ft 374 kts 100°
2026-05-04 15:40 50.00717 7.99240 10864 ft 378 kts 85°
2026-05-04 15:40 50.01348 8.03217 10768 ft 382 kts 72°
2026-05-04 15:41 50.02290 8.07078 10661 ft 382 kts 71°
2026-05-04 15:41 50.03225 8.10895 10530 ft 370 kts 71°
2026-05-04 15:41 50.04123 8.14555 10406 ft 354 kts 71°
2026-05-04 15:41 50.04979 8.18059 10283 ft 340 kts 72°
2026-05-04 15:42 50.05790 8.21397 10172 ft 328 kts 72°
2026-05-04 15:42 50.06581 8.24664 10030 ft 317 kts 72°
2026-05-04 15:42 50.07342 8.27817 9846 ft 309 kts 72°
2026-05-04 15:42 50.08091 8.30919 9677 ft 304 kts 72°
2026-05-04 15:43 50.08832 8.34003 9550 ft 303 kts 72°
2026-05-04 15:43 50.09563 8.37045 9419 ft 303 kts 72°
2026-05-04 15:43 50.10301 8.40112 9287 ft 302 kts 72°
2026-05-04 15:43 50.11040 8.43172 9149 ft 301 kts 72°
2026-05-04 15:44 50.11772 8.46214 9012 ft 299 kts 72°
2026-05-04 15:44 50.12496 8.49238 8863 ft 297 kts 72°
2026-05-04 15:44 50.13215 8.52254 8743 ft 297 kts 72°
2026-05-04 15:44 50.13931 8.55266 8615 ft 296 kts 72°
2026-05-04 15:45 50.14645 8.58267 8481 ft 295 kts 72°
2026-05-04 15:45 50.15358 8.61268 8362 ft 295 kts 72°
2026-05-04 15:45 50.16069 8.64267 8229 ft 294 kts 72°
2026-05-04 15:45 50.16778 8.67250 8100 ft 293 kts 72°
2026-05-04 15:46 50.17487 8.70230 7985 ft 293 kts 72°
2026-05-04 15:46 50.18193 8.73210 7838 ft 292 kts 72°
2026-05-04 15:46 50.18894 8.76178 7717 ft 292 kts 72°
2026-05-04 15:46 50.19598 8.79144 7590 ft 291 kts 72°
2026-05-04 15:47 50.20296 8.82101 7466 ft 291 kts 72°
2026-05-04 15:47 50.20992 8.85056 7346 ft 290 kts 72°
2026-05-04 15:47 50.21690 8.88015 7223 ft 290 kts 72°
2026-05-04 15:47 50.22375 8.90929 7101 ft 290 kts 72°
2026-05-04 15:48 50.23065 8.93874 6973 ft 289 kts 72°
2026-05-04 15:48 50.23752 8.96817 6850 ft 289 kts 73°
2026-05-04 15:48 50.25122 9.02696 6610 ft 287 kts 72°
2026-05-04 15:49 50.25803 9.05615 6480 ft 287 kts 72°
2026-05-04 15:49 50.26487 9.08541 6362 ft 286 kts 72°
2026-05-04 15:49 50.27166 9.11461 6230 ft 285 kts 72°
2026-05-04 15:49 50.27840 9.14369 6100 ft 284 kts 72°
2026-05-04 15:50 50.28512 9.17266 5967 ft 284 kts 72°
2026-05-04 15:50 50.29187 9.20178 5849 ft 285 kts 71°
2026-05-04 15:50 50.29861 9.23098 5723 ft 285 kts 71°
2026-05-04 15:50 50.30530 9.26002 5587 ft 285 kts 70°
2026-05-04 15:51 50.31168 9.28927 5454 ft 284 kts 77°
2026-05-04 15:51 50.31255 9.31990 5323 ft 282 kts 101°
2026-05-04 15:51 50.30574 9.34815 5207 ft 276 kts 126°
2026-05-04 15:51 50.29257 9.36946 5084 ft 273 kts 149°
2026-05-04 15:52 50.27546 9.38172 5001 ft 268 kts 168°
2026-05-04 15:52 50.25709 9.38519 5007 ft 266 kts 185°
2026-05-04 15:52 50.23911 9.37981 5007 ft 264 kts 202°
2026-05-04 15:52 50.22306 9.36622 5009 ft 263 kts 219°
2026-05-04 15:53 50.21422 9.35336 5007 ft 261 kts 231°
2026-05-04 15:53 50.20249 9.32116 5008 ft 260 kts 253°
2026-05-04 15:53 50.19955 9.29365 5006 ft 257 kts 269°
2026-05-04 15:53 50.20142 9.26584 5005 ft 259 kts 277°
2026-05-04 15:54 50.20260 9.23792 5008 ft 260 kts 269°
2026-05-04 15:54 50.20125 9.20964 5006 ft 258 kts 261°
2026-05-04 15:54 50.19898 9.19107 5010 ft 259 kts 255°
2026-05-04 15:54 50.19356 9.16415 5009 ft 261 kts 249°
2026-05-04 15:55 50.18748 9.13784 5008 ft 262 kts 249°
2026-05-04 15:55 50.18150 9.11164 5004 ft 248 kts 249°
2026-05-04 15:55 50.17591 9.08702 5007 ft 234 kts 249°
2026-05-04 15:55 50.17074 9.06370 5005 ft 222 kts 249°
2026-05-04 15:56 50.16563 9.04142 5006 ft 215 kts 248°
2026-05-04 15:56 50.16053 9.01955 5006 ft 215 kts 248°
2026-05-04 15:56 50.15541 8.99766 5006 ft 214 kts 248°
2026-05-04 15:56 50.15030 8.97580 5005 ft 215 kts 248°
2026-05-04 15:57 50.14517 8.95387 5009 ft 215 kts 248°
2026-05-04 15:57 50.14004 8.93197 5008 ft 215 kts 248°
2026-05-04 15:57 50.13492 8.91015 5008 ft 215 kts 248°
2026-05-04 15:57 50.12983 8.88847 5009 ft 209 kts 248°
2026-05-04 15:58 50.12494 8.86766 4864 ft 204 kts 248°
2026-05-04 15:58 50.12003 8.84680 4534 ft 207 kts 248°
2026-05-04 15:58 50.11503 8.82559 4238 ft 210 kts 249°
2026-05-04 15:58 50.11001 8.80426 3970 ft 206 kts 249°
2026-05-04 15:59 50.10522 8.78399 3684 ft 195 kts 250°
2026-05-04 15:59 50.10077 8.76512 3431 ft 175 kts 250°
2026-05-04 15:59 50.09677 8.74825 3220 ft 159 kts 251°
2026-05-04 15:59 50.09308 8.73264 3037 ft 148 kts 251°
2026-05-04 16:00 50.08960 8.71793 2823 ft 142 kts 253°
2026-05-04 16:00 50.08621 8.70352 2784 ft 149 kts 254°
2026-05-04 16:00 50.08251 8.68736 3398 ft 168 kts 253°
2026-05-04 16:00 50.07836 8.66881 3985 ft 198 kts 252°
2026-05-04 16:01 50.07362 8.64657 4619 ft 233 kts 250°
2026-05-04 16:01 50.06766 8.62107 5044 ft 271 kts 248°
2026-05-04 16:01 50.06102 8.59414 5009 ft 259 kts 247°
2026-05-04 16:01 50.05477 8.56899 5006 ft 240 kts 247°
2026-05-04 16:02 50.04900 8.54556 5005 ft 223 kts 248°
2026-05-04 16:02 50.04377 8.52339 5006 ft 217 kts 253°
2026-05-04 16:02 50.04122 8.47650 5005 ft 219 kts 275°
2026-05-04 16:03 50.04619 8.45418 5006 ft 222 kts 299°
2026-05-04 16:03 50.05648 8.43628 5004 ft 225 kts 322°
2026-05-04 16:03 50.07023 8.42444 5004 ft 227 kts 338°
2026-05-04 16:03 50.08564 8.41913 5003 ft 229 kts 357°
2026-05-04 16:04 50.10151 8.42172 5006 ft 231 kts 10°
2026-05-04 16:04 50.13330 8.43111 5002 ft 233 kts 10°
2026-05-04 16:04 50.14918 8.43578 5005 ft 232 kts
2026-05-04 16:05 50.16485 8.44184 5006 ft 233 kts 24°
2026-05-04 16:05 50.17817 8.45591 5006 ft 232 kts 47°
2026-05-04 16:05 50.19251 8.50013 5009 ft 230 kts 72°
2026-05-04 16:06 50.19812 8.52355 5009 ft 231 kts 71°
2026-05-04 16:06 50.21329 8.58592 5009 ft 231 kts 71°
2026-05-04 16:07 50.22090 8.61730 5009 ft 231 kts 71°
2026-05-04 16:07 50.23782 8.68770 5007 ft 231 kts 71°
2026-05-04 16:08 50.24345 8.71124 5007 ft 231 kts 71°
2026-05-04 16:08 50.26019 8.78130 5005 ft 230 kts 71°
2026-05-04 16:09 50.26860 8.82897 5007 ft 226 kts 97°
2026-05-04 16:09 50.25372 8.86858 5012 ft 214 kts 152°
2026-05-04 16:10 50.22771 8.89144 5013 ft 215 kts 153°
2026-05-04 16:11 50.18861 8.92582 5010 ft 215 kts 153°
2026-05-04 16:11 50.17555 8.93718 5010 ft 214 kts 156°
2026-05-04 16:12 50.13752 8.91938 5006 ft 211 kts 241°
2026-05-04 16:12 50.12185 8.85448 4609 ft 213 kts 248°
2026-05-04 16:13 50.11169 8.81138 4046 ft 211 kts 250°
2026-05-04 16:13 50.10159 8.76857 3484 ft 210 kts 250°
2026-05-04 16:14 50.09160 8.72633 2927 ft 208 kts 252°
2026-05-04 16:14 50.08157 8.68400 2394 ft 207 kts 252°
2026-05-04 16:15 50.06813 8.62748 1659 ft 156 kts 251°
2026-05-04 16:16 50.06127 8.59864 1255 ft 132 kts 251°
2026-05-04 16:16 50.05180 8.55846 726 ft 133 kts 251°
2026-05-04 16:17 50.04537 8.53175 381 ft 131 kts 251°
2026-05-04 16:18 50.04129 8.51473 333 ft 25 kts 250°
2026-05-04 16:18 50.04045 8.51157 327 ft 36 kts 240°
2026-05-04 16:19 50.03860 8.50857 326 ft 0 kts 219°
2026-05-04 16:20 50.03786 8.50870 332 ft 0 kts 121°
2026-05-04 16:20 50.03794 8.50981 331 ft 15 kts 69°
2026-05-04 16:21 50.03958 8.51660 333 ft 14 kts 70°
2026-05-04 16:22 50.04026 8.51948 335 ft 12 kts 69°
2026-05-04 16:22 50.04094 8.52231 349 ft 12 kts 70°
2026-05-04 16:23 50.04232 8.52810 355 ft 26 kts 70°
2026-05-04 16:24 50.04397 8.53544 375 ft 4 kts 84°
2026-05-04 16:25 50.04397 8.53547 375 ft 3 kts 84°
2026-05-04 16:26 50.04429 8.54018 375 ft 11 kts 84°
2026-05-04 16:26 50.04439 8.54554 369 ft 18 kts 108°
2026-05-04 16:27 50.04291 8.54784 357 ft 13 kts 158°
2026-05-04 16:28 50.04075 8.54907 356 ft 0 kts 159°
2026-05-04 16:28 50.04036 8.54929 358 ft 6 kts 160°
2026-05-04 16:29 50.03856 8.55144 357 ft 12 kts 71°
2026-05-04 16:30 50.03987 8.55692 356 ft 15 kts 70°
2026-05-04 16:31 50.04055 8.55977 358 ft 18 kts 70°
2026-05-04 16:31 50.04176 8.56484 358 ft 10 kts 69°
2026-05-04 16:32 50.04229 8.56708 361 ft 4 kts 70°
2026-05-04 16:33 50.04242 8.56761 362 ft 6 kts 70°
2026-05-04 16:33 50.04304 8.57020 362 ft 11 kts 72°
2026-05-04 16:34 50.04372 8.57303 364 ft 12 kts 69°
2026-05-04 16:34 50.04400 8.57420 364 ft 8 kts 69°
2026-05-04 16:35 50.04516 8.57903 367 ft 7 kts 69°
2026-05-04 16:35 50.04590 8.58025 360 ft 15 kts 330°
2026-05-04 16:36 50.04660 8.57987 362 ft 7 kts 340°
2026-05-04 16:36 50.04679 8.57976 363 ft 4 kts 340°
2026-05-04 16:37 50.04802 8.58051 362 ft 18 kts 67°
2026-05-04 16:37 50.04826 8.58148 360 ft 13 kts 69°
2026-05-04 16:37 50.04887 8.58406 360 ft 14 kts 70°
2026-05-04 16:38 50.04961 8.58715 364 ft 19 kts 70°
2026-05-04 16:39 50.04976 8.58915 361 ft 7 kts 163°
2026-05-04 16:39 50.04927 8.58943 362 ft 0 kts 160°